[[[{"header":{"parameterUnit":"kt","parameterCategory":2,"dx":1,"dy":1,"la1":30.253999710083008,"la2":30.299108505249023,"lo1":-89.0895004272461,"lo2":-89.04439544677734,"nx":28,"ny":28,"refTime":"2022-10-09T21:00:00:Z","depth":0,"parameterNumber":1,"parameterNumberName":"U-component_of_WINDS"},"data":[-7.4554,-7.477,-7.4746,-7.4982,-7.5,-7.5156,-7.5204,-7.5263,-7.5303,-7.5486,-7.5586,-7.5583,-7.5613,-7.5726,-7.5833,-7.5828,-7.5876,-7.597,-7.5949,-7.5551,-7.5494,-7.544,-7.5387,-7.5981,-7.5981,-7.6366,-7.637,-7.6372,-7.4262,-7.4282,-7.44,-7.4497,-7.4597,-7.4492,-7.456,-7.4651,-7.4793,-7.4845,-7.4942,-7.5101,-7.5223,-7.522,-7.5333,-7.5432,-7.5389,-7.5464,-7.5457,-7.5464,-7.5036,-7.4981,-7.5497,-7.5497,-7.5497,-7.5497,-7.5497,-7.5497,-7.3724,-7.3855,-7.3899,-7.4027,-7.4069,-7.4134,-7.4254,-7.4247,-7.4361,-7.4477,-7.4424,-7.4584,-7.463,-7.4753,-7.4788,-7.4912,-7.4823,-7.4898,-7.4917,-7.4937,-7.4964,-7.4413,-7.4929,-7.4928,-7.4926,-7.4925,-7.4924,0,-7.3322,-7.3293,-7.3404,-7.3509,-7.36,-7.3678,-7.3745,-7.3819,-7.3746,-7.3844,-7.3982,-7.4058,-7.4207,-7.4334,-7.4433,-7.4453,-7.4354,-7.434,-7.4392,-7.4421,-7.4434,-7.4431,-7.3736,-7.4326,-7.4321,-7.4317,-7.4314,-7.4312,-7.2779,-7.2935,-7.2969,-7.305,-7.308,-7.3213,-7.3287,-7.3211,-7.3293,-7.3363,-7.3483,-7.3608,-7.3706,-7.3931,-7.3921,-7.4032,-7.3985,-7.4213,-7.4001,-7.4021,-7.3989,-7.3982,-7.3997,-7.4256,-7.4264,-7.4269,-7.4274,0,-7.2475,-7.2433,-7.2666,-7.2684,-7.2693,-7.2861,-7.2875,-7.3002,-7.2981,-7.3153,-7.3189,-7.3156,-7.3293,-7.3244,-7.3391,-7.3362,-7.3635,-7.3586,-7.3618,-7.3606,-7.3807,-7.3789,-7.4463,-7.4547,-7.393,-7.3936,-7.3941,0,-7.1995,-7.2203,-7.2128,-7.2266,-7.2493,-7.2411,-7.2638,-7.2642,-7.268,-7.2815,-7.2693,-7.2822,-7.2739,-7.2862,-7.2819,-7.3033,-7.306,-7.3051,-7.3037,-7.3063,-7.3065,-7.3107,-7.3079,-7.2999,-7.2995,-7.2992,-7.299,0,-7.1526,-7.1728,-7.1951,-7.199,-7.2031,-7.2137,-7.2159,-7.22,-7.2274,-7.236,-7.2406,-7.2513,-7.2573,-7.2657,-7.2601,-7.2459,-7.2861,-7.2654,-7.2852,-7.2854,-7.2945,-7.2941,-7.3548,-7.2985,-7.2984,-7.2983,-7.2982,0,-7.1132,-7.1222,-7.1551,-7.1581,-7.1637,-7.1784,-7.1883,-7.1998,-7.2051,-7.2033,-7.21,-7.2014,-7.2196,-7.1995,-7.2245,-7.2076,-7.2141,-7.2148,-7.2161,-7.2177,-7.1953,-7.2304,-7.2885,-7.2945,-7.2188,-7.2181,-7.2175,0,-7.0606,-7.0927,-7.0859,-7.1174,-7.1315,-7.1168,-7.1329,-7.1379,-7.1369,-7.1486,-7.1473,-7.1609,-7.1448,-7.1484,-7.1614,-7.1607,-7.1826,-7.1575,-7.1747,-7.1754,-7.1739,-7.2273,-7.2372,-7.2763,-7.209,-7.2099,-7.2105,0,-7.0194,-7.024,-7.0302,-7.0343,-7.0397,-7.0515,-7.07,-7.0816,-7.0898,-7.0968,-7.1121,-7.131,-7.1196,-7.1257,-7.1197,-7.1336,-7.1675,-7.1196,-7.1196,-7.1285,-7.2042,-7.2136,-7.2202,-7.1604,-7.1615,-7.1623,-7.2038,0,-6.961,-6.9765,-6.9928,-7.0024,-7.0107,-7.0301,-7.0249,-7.0342,-7.0276,-7.026,-7.0485,-7.0514,-7.0633,-7.0694,-7.0632,-7.0964,-7.0901,-7.0779,-7.0581,-7.0931,-7.1066,-7.1122,-7.0383,-7.0377,-7.0371,-7.0367,0,0,-6.9119,-6.9339,-6.9258,-6.9435,-6.95,-6.9345,-6.9557,-6.9602,-6.9699,-6.9747,-6.9635,-6.9907,-6.9937,-7.0215,-7.032,-7.0368,-7.0423,-7.0303,-7.0764,-7.0809,-7.085,-7.0996,-7.1054,-7.0358,-7.0356,-7.0354,-7.0353,0,-6.8895,-6.8928,-6.9138,-6.9181,-6.9242,-6.9214,-6.9265,-6.9298,-6.9298,-6.9517,-6.9387,-6.9515,-6.9735,-6.9783,-6.9837,-7.0267,-7.0162,-7.0307,-7.0556,-7.0714,-7.0765,-7.0811,-7.0965,-7.1021,-7.034,-7.0341,-7.0341,0,-6.848,-6.8504,-6.86,-6.874,-6.8779,-6.8928,-6.8706,-6.8874,-6.8984,-6.8806,-6.9027,-6.9037,-6.9097,-6.9367,-6.9486,-6.9388,-6.9929,-6.9749,-6.978,-6.9793,-6.9943,-7.0005,-7.006,-6.9335,-6.9332,-6.9329,0,0,-6.8294,-6.8437,-6.8439,-6.8688,-6.8722,-6.8684,-6.8758,-6.87,-6.8757,-6.8781,-6.8792,-6.8852,-6.8978,-6.9064,-6.918,-6.9483,-6.949,-6.9627,-6.9675,-6.9714,-6.9748,-6.9908,-6.997,-6.9316,-6.9316,-6.9316,0,0,-6.8205,-6.8217,-6.8141,-6.8423,-6.8482,-6.8501,-6.8655,-6.8561,-6.8661,-6.8633,-6.8543,-6.8555,-6.8806,-6.8822,-6.8661,-6.9108,-6.8913,-6.895,-6.909,-6.9149,-6.9195,-6.9187,-6.844,0,0,0,0,0,-6.795,-6.8215,-6.8145,-6.8185,-6.8362,-6.8539,-6.8561,-6.8493,-6.8355,-6.8479,-6.8473,-6.8356,-6.8716,-6.8572,-6.8613,-6.8794,-6.9156,-6.9185,-6.9211,-6.9462,-6.9525,-6.9577,0,0,0,0,0,0,-6.7965,-6.8014,-6.8138,-6.8169,-6.8208,-6.8529,-6.8281,-6.827,-6.8341,-6.8315,-6.836,-6.8357,-6.8302,-6.8546,-6.8584,-6.8758,-6.8427,-6.9167,-6.9191,-6.9213,-6.9483,-6.9535,-6.9578,0,0,0,0,0,-6.7977,-6.8016,-6.8319,-6.8165,-6.8199,-6.8172,-6.8271,-6.8259,-6.8313,-6.8304,-6.8297,-6.8255,-6.8309,-6.8336,-6.8569,-6.8742,-6.84,-6.8414,-6.9183,-6.9202,-6.9219,-6.9509,0,0,0,0,0,0,-6.7985,-6.8007,-6.8324,-6.8331,-6.806,-6.8152,-6.8164,-6.8251,-6.8296,-6.8292,-6.8193,-6.8173,-6.8317,-6.8337,-6.8359,-6.8741,-6.8378,-6.8393,-6.8402,-6.9197,-6.9212,-6.9226,0,0,0,0,0,0,-6.7985,-6.8015,-6.8328,-6.8199,-6.8191,-6.8135,-6.8146,-6.8333,-6.8298,-6.8182,-6.8165,-6.8183,-6.8285,-6.8339,-6.8355,-6.865,-6.8362,-6.8376,-6.8385,-6.8391,-6.921,-6.9221,0,0,0,0,0,0,-6.7996,-6.8021,-6.8196,-6.8191,-6.8183,-6.8265,-6.8299,-6.8485,-6.8188,-6.8182,-6.8159,-6.8146,-6.8291,-6.8305,-6.8353,-6.8643,-6.8648,-6.8362,-6.8372,-6.8378,-6.8383,0,0,0,0,0,0,0,-6.8005,-6.7853,-6.8278,-6.8184,-6.8177,-6.8404,-6.8406,-6.8408,-6.8185,-6.8174,-6.8162,-6.8152,-6.8282,-6.8297,-6.8312,-6.8637,0,0,-6.8361,-6.8367,0,0,0,0,0,0,0,0,-6.784,-6.785,-6.8278,-6.828,-6.8281,-6.8404,-6.8406,-6.8407,-6.8183,-6.8174,-6.8165,-6.8156,-6.8286,-6.8298,-6.8311,0,0,0,0,0,0,0,0,0,0,0,0,0,0,0,-6.8278,-6.8279,0,-6.8404,-6.8406,-6.8407,-6.8182,-6.8174,-6.8167,-6.8159,-6.8289,-6.8299,-6.831,0,0,0,0,0,0,0,0,0,0,0,0,0,0,0,0,0,0,0,0,0,0,0,0,0,0,0,0,0,0,0,0,0,0,0,0,0,0,0,0,0,0,0,0,0,0,0,0,0,0,0,0,0,0,0,0,0,0,0,0,0,0,0,0,0,0,0,0,0]}],[{"header":{"parameterUnit":"kt","parameterCategory":2,"dx":1,"dy":1,"la1":30.253999710083008,"la2":30.299108505249023,"lo1":-89.0895004272461,"lo2":-89.04439544677734,"nx":28,"ny":28,"refTime":"2022-10-09T21:00:00:Z","depth":0,"parameterNumber":2,"parameterNumberName":"V-component_of_WINDS"},"data":[-6.9938,-6.9967,-6.9945,-6.9967,-6.9951,-6.9961,-6.9958,-6.995,-6.9938,-6.9946,-6.9946,-6.9926,-6.9904,-6.9897,-6.9894,-6.9884,-6.9883,-6.9908,-6.9892,-6.9803,-6.9789,-6.9775,-6.9766,-6.991,-6.991,-6.9986,-6.9986,-6.9987,-6.9868,-6.9853,-6.986,-6.9851,-6.9855,-6.9817,-6.9807,-6.9812,-6.9822,-6.9809,-6.9809,-6.9813,-6.9814,-6.9783,-6.9779,-6.9788,-6.9769,-6.9788,-6.9785,-6.9781,-6.9686,-6.9677,-6.9804,-6.9804,-6.9804,-6.9804,-6.9804,-6.9804,-6.9734,-6.9753,-6.9736,-6.9743,-6.9733,-6.9727,-6.974,-6.9716,-6.9721,-6.9717,-6.9691,-6.9701,-6.9682,-6.9667,-6.9657,-6.9662,-6.9636,-6.965,-6.9652,-6.9655,-6.966,-6.9545,-6.9661,-6.9661,-6.966,-6.966,-6.966,0,-6.9628,-6.9608,-6.9615,-6.9614,-6.9618,-6.9615,-6.9609,-6.9617,-6.9568,-6.9575,-6.9581,-6.9581,-6.9581,-6.9583,-6.9575,-6.9561,-6.9519,-6.9515,-6.9523,-6.9533,-6.9543,-6.9533,-6.9375,-6.9511,-6.951,-6.9509,-6.9508,-6.9507,-6.9486,-6.9514,-6.9487,-6.9494,-6.9485,-6.9498,-6.95,-6.9456,-6.946,-6.9445,-6.9464,-6.9467,-6.9467,-6.9481,-6.9451,-6.945,-6.9429,-6.9482,-6.9428,-6.9437,-6.9424,-6.9421,-6.9421,-6.9493,-6.9495,-6.9496,-6.9497,0,-6.9407,-6.9374,-6.941,-6.9381,-6.9374,-6.9404,-6.9377,-6.9395,-6.9371,-6.9391,-6.9393,-6.9354,-6.9361,-6.9323,-6.9324,-6.9303,-6.9344,-6.9327,-6.9349,-6.9342,-6.9382,-6.9377,-6.953,-6.9545,-6.9401,-6.9403,-6.9404,0,-6.9272,-6.9311,-6.9257,-6.928,-6.9319,-6.9275,-6.9314,-6.9297,-6.9283,-6.9299,-6.9248,-6.9264,-6.9213,-6.9222,-6.9192,-6.922,-6.9222,-6.9206,-6.9196,-6.9208,-6.9209,-6.9206,-6.9197,-6.9181,-6.918,-6.9179,-6.9179,0,-6.9149,-6.9169,-6.9206,-6.9204,-6.9178,-6.9196,-6.9186,-6.917,-6.9174,-6.9172,-6.9173,-6.9175,-6.9175,-6.9175,-6.9136,-6.91,-6.9171,-6.9114,-6.9154,-6.9155,-6.917,-6.9169,-6.9316,-6.9178,-6.9178,-6.9177,-6.9177,0,-6.9034,-6.9036,-6.9098,-6.9073,-6.9079,-6.9105,-6.9103,-6.9117,-6.9104,-6.9087,-6.9086,-6.9047,-6.9073,-6.9017,-6.905,-6.9013,-6.9015,-6.9003,-6.9006,-6.9002,-6.8941,-6.9024,-6.9173,-6.9184,-6.9002,-6.9001,-6.9,0,-6.8899,-6.8954,-6.8917,-6.8976,-6.8996,-6.8936,-6.8964,-6.8955,-6.8935,-6.8947,-6.8924,-6.8938,-6.889,-6.8889,-6.891,-6.8886,-6.8934,-6.8879,-6.889,-6.8891,-6.8891,-6.9028,-6.9057,-6.9145,-6.8981,-6.8983,-6.8984,0,-6.8791,-6.8762,-6.8776,-6.8771,-6.8756,-6.8773,-6.8806,-6.8811,-6.882,-6.8819,-6.8841,-6.8864,-6.8826,-6.8826,-6.8796,-6.882,-6.89,-6.8777,-6.8775,-6.8796,-6.897,-6.8997,-6.9012,-6.8873,-6.8876,-6.8878,-6.8969,0,-6.8615,-6.864,-6.8677,-6.8674,-6.8682,-6.872,-6.8682,-6.8695,-6.8664,-6.8643,-6.8679,-6.8664,-6.8669,-6.8679,-6.8651,-6.8721,-6.8702,-6.8663,-6.8604,-6.8697,-6.8725,-6.8737,-6.8564,-6.8562,-6.8561,-6.8559,0,0,-6.8492,-6.8528,-6.8488,-6.852,-6.8523,-6.8463,-6.8506,-6.8503,-6.8499,-6.8502,-6.8469,-6.8498,-6.8489,-6.8536,-6.8562,-6.8566,-6.8573,-6.8544,-6.8654,-6.8665,-6.8675,-6.8706,-6.872,-6.8556,-6.8556,-6.8555,-6.8555,0,-6.8419,-6.8415,-6.846,-6.8455,-6.8447,-6.8423,-6.8434,-6.8415,-6.8404,-6.8442,-6.839,-6.8407,-6.8435,-6.8428,-6.8429,-6.8538,-6.8496,-6.8543,-6.8612,-6.8639,-6.8652,-6.8664,-6.8697,-6.8711,-6.8551,-6.8551,-6.8551,0,-6.8303,-6.829,-6.8309,-6.832,-6.8314,-6.8338,-6.8267,-6.8297,-6.8313,-6.8246,-6.8284,-6.8271,-6.8262,-6.8314,-6.8337,-6.8307,-6.8428,-6.8386,-6.8395,-6.8395,-6.8419,-6.8435,-6.8449,-6.8265,-6.8264,-6.8263,0,0,-6.8245,-6.827,-6.8243,-6.8302,-6.8302,-6.8268,-6.8278,-6.8249,-6.8243,-6.8241,-6.8224,-6.8219,-6.8233,-6.8244,-6.8256,-6.8321,-6.8312,-6.8352,-6.8365,-6.8377,-6.8383,-6.841,-6.8426,-6.826,-6.826,-6.826,0,0,-6.8216,-6.8188,-6.8159,-6.8223,-6.822,-6.8197,-6.8233,-6.8196,-6.8204,-6.8195,-6.8147,-6.8144,-6.8193,-6.8183,-6.8144,-6.8233,-6.8177,-6.8185,-6.8238,-6.8255,-6.8268,-6.8268,-6.8069,0,0,0,0,0,-6.8124,-6.8191,-6.8165,-6.8171,-6.8185,-6.8211,-6.8213,-6.8175,-6.8134,-6.8163,-6.8142,-6.8099,-6.8151,-6.8116,-6.8121,-6.8164,-6.8219,-6.8226,-6.8233,-6.8316,-6.8334,-6.8349,0,0,0,0,0,0,-6.8125,-6.8132,-6.8163,-6.8144,-6.8147,-6.8209,-6.8131,-6.8122,-6.813,-6.8121,-6.8105,-6.8099,-6.8066,-6.8111,-6.8116,-6.8157,-6.8067,-6.8221,-6.8228,-6.8233,-6.8322,-6.8336,-6.8349,0,0,0,0,0,-6.8127,-6.8132,-6.8166,-6.8143,-6.8145,-6.8111,-6.8128,-6.812,-6.8126,-6.8095,-6.8088,-6.8097,-6.8069,-6.807,-6.8113,-6.8156,-6.8063,-6.8065,-6.8226,-6.823,-6.8235,-6.8329,0,0,0,0,0,0,-6.8127,-6.8124,-6.8165,-6.8164,-6.8115,-6.8107,-6.8105,-6.8119,-6.8098,-6.8092,-6.8084,-6.8078,-6.8071,-6.8072,-6.8074,-6.8157,-6.806,-6.8062,-6.8063,-6.8229,-6.8233,-6.8236,0,0,0,0,0,0,-6.8121,-6.8124,-6.8165,-6.8132,-6.8127,-6.8103,-6.8101,-6.8133,-6.8098,-6.8088,-6.8082,-6.8082,-6.8068,-6.8074,-6.8075,-6.8126,-6.8058,-6.806,-6.8061,-6.8062,-6.8232,-6.8235,0,0,0,0,0,0,-6.8122,-6.8124,-6.8132,-6.8128,-6.8124,-6.8112,-6.813,-6.8147,-6.8072,-6.809,-6.8064,-6.806,-6.8071,-6.8071,-6.8076,-6.8127,-6.8126,-6.8058,-6.8059,-6.806,-6.8061,0,0,0,0,0,0,0,-6.8122,-6.8114,-6.817,-6.8125,-6.8121,-6.8157,-6.8157,-6.8157,-6.8071,-6.8068,-6.8065,-6.8062,-6.8046,-6.8048,-6.8051,-6.8128,0,0,-6.8057,-6.8058,0,0,0,0,0,0,0,0,-6.8112,-6.8114,-6.817,-6.817,-6.817,-6.8157,-6.8157,-6.8157,-6.8071,-6.8068,-6.8065,-6.8063,-6.8047,-6.8048,-6.805,0,0,0,0,0,0,0,0,0,0,0,0,0,0,0,-6.817,-6.817,0,-6.8157,-6.8157,-6.8157,-6.807,-6.8068,-6.8066,-6.8064,-6.8047,-6.8049,-6.805,0,0,0,0,0,0,0,0,0,0,0,0,0,0,0,0,0,0,0,0,0,0,0,0,0,0,0,0,0,0,0,0,0,0,0,0,0,0,0,0,0,0,0,0,0,0,0,0,0,0,0,0,0,0,0,0,0,0,0,0,0,0,0,0,0,0,0,0,0]}]]]